TimeMST,TemperatureF,Dew PointF,Humidity,Sea Level PressureIn,VisibilityMPH,Wind Direction,Wind SpeedMPH,Gust SpeedMPH,PrecipitationIn,Events,Conditions,WindDirDegrees,DateUTC
12:53 AM,51.1,12.0,21,29.80,10.0,SW,8.1,-,N/A,,Clear,220,2013-03-04 07:53:00
1:53 AM,48.0,12.0,24,29.80,10.0,SW,9.2,-,N/A,,Clear,230,2013-03-04 08:53:00
2:53 AM,48.0,12.0,24,29.78,10.0,SSW,6.9,-,N/A,,Partly Cloudy,210,2013-03-04 09:53:00
3:53 AM,46.0,10.9,24,29.79,10.0,WSW,6.9,-,N/A,,Clear,240,2013-03-04 10:53:00
4:53 AM,46.0,10.9,24,29.80,10.0,WSW,8.1,-,N/A,,Clear,240,2013-03-04 11:53:00
5:53 AM,46.9,12.0,24,29.82,10.0,West,10.4,-,N/A,,Partly Cloudy,260,2013-03-04 12:53:00
6:53 AM,46.9,10.9,23,29.83,10.0,South,3.5,-,N/A,,Partly Cloudy,180,2013-03-04 13:53:00
7:53 AM,53.1,16.0,23,29.82,10.0,SSW,3.5,-,N/A,,Clear,200,2013-03-04 14:53:00
8:53 AM,60.1,19.9,21,29.80,10.0,West,16.1,-,N/A,,Partly Cloudy,270,2013-03-04 15:53:00
9:53 AM,66.0,14.0,13,29.78,10.0,West,18.4,24.2,N/A,,Clear,260,2013-03-04 16:53:00
10:53 AM,70.0,7.0,9,29.75,10.0,West,19.6,31.1,N/A,,Clear,260,2013-03-04 17:53:00
11:53 AM,73.0,14.0,11,29.72,10.0,West,20.7,28.8,N/A,,Clear,280,2013-03-04 18:53:00
12:53 PM,73.0,19.9,14,29.69,7.0,WNW,27.6,36.8,N/A,,Partly Cloudy,290,2013-03-04 19:53:00
1:53 PM,73.0,21.0,14,29.69,6.0,WNW,24.2,40.3,N/A,,Haze,290,2013-03-04 20:53:00
2:53 PM,73.0,19.9,14,29.69,7.0,WNW,28.8,44.9,N/A,,Clear,290,2013-03-04 21:53:00
3:36 PM,71.6,19.4,14,29.85,2.0,West,28.8,42.6,N/A,,Haze,280,2013-03-04 22:36:00
3:47 PM,71.6,15.8,12,29.86,1.8,WNW,26.5,42.6,N/A,,Haze,290,2013-03-04 22:47:00
3:53 PM,71.1,16.0,12,29.72,2.0,West,32.2,46.0,N/A,,Haze,280,2013-03-04 22:53:00
4:04 PM,71.6,15.8,12,29.87,4.0,WNW,28.8,38.0,N/A,,Haze,300,2013-03-04 23:04:00
4:33 PM,69.8,15.8,13,29.87,1.8,WNW,35.7,46.0,N/A,,Haze,300,2013-03-04 23:33:00
4:47 PM,69.8,17.6,14,29.89,3.0,WNW,34.5,46.0,N/A,,Haze,290,2013-03-04 23:47:00
4:53 PM,69.1,18.0,14,29.75,5.0,WNW,28.8,46.0,N/A,,Haze,290,2013-03-04 23:53:00
5:53 PM,64.9,19.9,18,29.81,9.0,WNW,24.2,35.7,N/A,,Clear,290,2013-03-05 00:53:00
6:53 PM,61.0,24.1,24,29.86,10.0,WNW,18.4,26.5,N/A,,Clear,300,2013-03-05 01:53:00
7:53 PM,57.9,21.0,24,29.88,10.0,NW,16.1,26.5,N/A,,Clear,310,2013-03-05 02:53:00
8:53 PM,55.0,19.9,25,29.91,10.0,WNW,16.1,-,N/A,,Clear,300,2013-03-05 03:53:00
9:53 PM,51.1,19.9,29,29.95,10.0,West,8.1,-,N/A,,Clear,280,2013-03-05 04:53:00
10:53 PM,46.9,19.0,33,29.97,10.0,WNW,9.2,-,N/A,,Clear,290,2013-03-05 05:53:00